Volver al catálogo

STARLINK-35625

ActivoComunicacionesVLEO
NORAD 66140·PAYLOAD·🇺🇸 United States

Lanzado Oct 22, 2025 desde Vandenberg Space Force Base

Loading…

Próximos Pases (próximas 24 horas)

TLE

ActualizadoSource: CelesTrak SupGP

Época: Sep 14, 2026, 20:54 UTC

1 66140C 25237AC  26257.87131944  .00045888  00000+0  13558-2 0  2578
2 66140  53.1570 237.8183 0001259  94.3739  77.0926 15.34367130    19

Sigue STARLINK-35625 en tiempo real con AllMySat

Download on the App Store